| time (UTC) | temp F | wind direction | speed MPH | gust MPH | rain 1hr in | rain 24hr in | rain mn in | humidity % | barometer mb |
| 20260506234900 | 48 | 44 | 6.0 | 9.0 | 0.00 | 0.00 | 0.00 | 93 | 1012.3 |
| 20260506233900 | 48 | 36 | 5.0 | 8.0 | 0.00 | 0.00 | 0.00 | 92 | 1012.5 |
| 20260506233400 | 48 | 34 | 4.0 | 8.0 | 0.00 | 0.00 | 0.00 | 92 | 1012.6 |
| 20260506232901 | 48 | 51 | 5.0 | 10.0 | 0.00 | 0.00 | 0.00 | 92 | 1012.6 |
| 20260506232400 | 48 | 35 | 7.0 | 13.0 | 0.00 | 0.00 | 0.00 | 92 | 1012.6 |
| 20260506231900 | 48 | 34 | 7.0 | 12.0 | 0.00 | 0.00 | 0.00 | 92 | 1012.6 |
| 20260506231400 | 48 | 33 | 5.0 | 9.0 | 0.00 | 0.00 | 0.00 | 92 | 1012.6 |
| 20260506230900 | 48 | 54 | 3.0 | 10.0 | 0.00 | 0.00 | 0.00 | 92 | 1012.6 |
| 20260506230400 | 48 | 34 | 7.0 | 12.0 | 0.00 | 0.00 | 0.00 | 92 | 1012.8 |
| 20260506225400 | 48 | 19 | 5.0 | 10.0 | 0.00 | 0.00 | 0.00 | 91 | 1012.8 |
| 20260506224900 | 48 | 29 | 4.0 | 10.0 | 0.00 | 0.00 | 0.00 | 91 | 1012.8 |
| 20260506224401 | 48 | 59 | 5.0 | 9.0 | 0.00 | 0.00 | 0.00 | 91 | 1012.8 |
| 20260506223401 | 48 | 37 | 5.0 | 10.0 | 0.00 | 0.00 | 0.00 | 90 | 1012.8 |
| 20260506222900 | 48 | 23 | 5.0 | 8.0 | 0.00 | 0.00 | 0.00 | 90 | 1012.8 |
| 20260506222400 | 48 | 36 | 6.0 | 10.0 | 0.00 | 0.00 | 0.00 | 90 | 1013.0 |
| 20260506221900 | 48 | 27 | 7.0 | 12.0 | 0.00 | 0.00 | 0.00 | 89 | 1012.9 |
| 20260506221400 | 48 | 42 | 6.0 | 14.0 | 0.00 | 0.00 | 0.00 | 89 | 1013.0 |
| 20260506220900 | 49 | 33 | 6.0 | 9.0 | 0.00 | 0.00 | 0.00 | 88 | 1013.0 |
| 20260506220401 | 49 | 30 | 8.0 | 12.0 | 0.00 | 0.00 | 0.00 | 88 | 1013.0 |
| 20260506215907 | 49 | 25 | 5.0 | 10.0 | 0.00 | 0.00 | 0.00 | 88 | 1013.1 |
| 20260506215400 | 49 | 33 | 7.0 | 12.0 | 0.00 | 0.00 | 0.00 | 87 | 1013.0 |
| 20260506214900 | 49 | 26 | 7.0 | 13.0 | 0.00 | 0.00 | 0.00 | 87 | 1013.2 |
| 20260506213900 | 49 | 8 | 3.0 | 10.0 | 0.00 | 0.00 | 0.00 | 86 | 1013.1 |
| 20260506213400 | 49 | 40 | 6.0 | 10.0 | 0.00 | 0.00 | 0.00 | 86 | 1013.4 |
| 20260506212401 | 49 | 37 | 6.0 | 12.0 | 0.00 | 0.00 | 0.00 | 85 | 1013.2 |
| 20260506211900 | 49 | 21 | 9.0 | 13.0 | 0.00 | 0.00 | 0.00 | 84 | 1013.3 |
| 20260506211400 | 49 | 19 | 9.0 | 13.0 | 0.00 | 0.00 | 0.00 | 84 | 1013.1 |
| 20260506210400 | 49 | 19 | 4.0 | 10.0 | 0.00 | 0.00 | 0.00 | 83 | 1013.3 |
| 20260506205900 | 49 | 25 | 6.0 | 9.0 | 0.00 | 0.00 | 0.00 | 83 | 1013.1 |
| 20260506205400 | 49 | 31 | 6.0 | 13.0 | 0.00 | 0.00 | 0.00 | 82 | 1013.2 |
| 20260506204400 | 49 | 40 | 10.0 | 16.0 | 0.00 | 0.00 | 0.00 | 81 | 1013.0 |
| 20260506203900 | 50 | 32 | 7.0 | 14.0 | 0.00 | 0.00 | 0.00 | 81 | 1013.0 |
| 20260506203400 | 50 | 36 | 8.0 | 14.0 | 0.00 | 0.00 | 0.00 | 80 | 1013.1 |
| 20260506202900 | 50 | 47 | 8.0 | 16.0 | 0.00 | 0.00 | 0.00 | 80 | 1012.9 |
| 20260506201900 | 50 | 28 | 9.0 | 16.0 | 0.00 | 0.00 | 0.00 | 78 | 1012.8 |
| 20260506200401 | 50 | 33 | 8.0 | 14.0 | 0.00 | 0.00 | 0.00 | 76 | 1012.4 |
| 20260506195401 | 51 | 43 | 10.0 | 16.0 | 0.00 | 0.00 | 0.00 | 74 | 1012.5 |
| 20260506194901 | 51 | 51 | 10.0 | 20.0 | 0.00 | 0.00 | 0.00 | 73 | 1012.5 |
| 20260506194400 | 51 | 43 | 12.0 | 18.0 | 0.00 | 0.00 | 0.00 | 73 | 1012.6 |
| 20260506193400 | 52 | 36 | 12.0 | 20.0 | 0.00 | 0.00 | 0.00 | 75 | 1012.4 |
| 20260506192900 | 52 | 40 | 11.0 | 20.0 | 0.00 | 0.00 | 0.00 | 76 | 1012.2 |
| 20260506192400 | 52 | 45 | 12.0 | 22.0 | 0.00 | 0.00 | 0.00 | 76 | 1012.3 |
| 20260506191900 | 53 | 48 | 10.0 | 16.0 | 0.00 | 0.00 | 0.00 | 77 | 1012.1 |
| 20260506191400 | 53 | 50 | 8.0 | 16.0 | 0.00 | 0.00 | 0.00 | 77 | 1012.0 |
| 20260506190900 | 54 | 63 | 8.0 | 14.0 | 0.00 | 0.00 | 0.00 | 76 | 1011.9 |
| 20260506190401 | 54 | 55 | 7.0 | 17.0 | 0.00 | 0.00 | 0.00 | 76 | 1011.9 |
| 20260506185900 | 54 | 36 | 13.0 | 18.0 | 0.00 | 0.00 | 0.00 | 74 | 1012.0 |
| 20260506185401 | 55 | 41 | 12.0 | 21.0 | 0.00 | 0.00 | 0.00 | 73 | 1011.8 |
| 20260506184400 | 54 | 18 | 12.0 | 18.0 | 0.00 | 0.00 | 0.00 | 72 | 1011.7 |
| 20260506183900 | 55 | 29 | 12.0 | 16.0 | 0.00 | 0.00 | 0.00 | 71 | 1011.5 |
| 20260506183400 | 55 | 25 | 9.0 | 18.0 | 0.00 | 0.00 | 0.00 | 70 | 1011.6 |
| 20260506182400 | 55 | 18 | 13.0 | 21.0 | 0.00 | 0.00 | 0.00 | 67 | 1011.7 |
| 20260506181901 | 55 | 18 | 13.0 | 18.0 | 0.00 | 0.00 | 0.00 | 66 | 1011.8 |
| 20260506181401 | 55 | 16 | 11.0 | 16.0 | 0.00 | 0.00 | 0.00 | 65 | 1011.7 |
| 20260506180900 | 55 | 35 | 8.0 | 15.0 | 0.00 | 0.00 | 0.00 | 66 | 1011.6 |
| 20260506180401 | 55 | 26 | 7.0 | 16.0 | 0.00 | 0.01 | 0.00 | 68 | 1011.6 |
| 20260506175900 | 55 | 21 | 12.0 | 18.0 | 0.00 | 0.01 | 0.00 | 68 | 1011.8 |
| 20260506175400 | 55 | 13 | 13.0 | 18.0 | 0.00 | 0.01 | 0.00 | 67 | 1011.7 |
| 20260506174900 | 55 | 25 | 9.0 | 16.0 | 0.00 | 0.01 | 0.00 | 68 | 1011.7 |
| 20260506174400 | 55 | 20 | 10.0 | 16.0 | 0.00 | 0.02 | 0.00 | 68 | 1011.5 |
| 20260506173901 | 55 | 17 | 9.0 | 18.0 | 0.00 | 0.02 | 0.00 | 70 | 1011.7 |
| 20260506173400 | 54 | 19 | 9.0 | 18.0 | 0.00 | 0.02 | 0.00 | 70 | 1011.8 |
| 20260506172400 | 54 | 14 | 16.0 | 21.0 | 0.00 | 0.08 | 0.00 | 72 | 1012.0 |
| 20260506171900 | 54 | 24 | 14.0 | 20.0 | 0.00 | 0.08 | 0.00 | 71 | 1011.9 |
| 20260506171401 | 54 | 25 | 14.0 | 21.0 | 0.00 | 0.08 | 0.00 | 71 | 1012.1 |
| 20260506170900 | 54 | 30 | 13.0 | 18.0 | 0.00 | 0.09 | 0.00 | 70 | 1012.0 |
| 20260506165401 | 54 | 18 | 10.0 | 14.0 | 0.00 | 0.12 | 0.00 | 71 | 1012.1 |
| 20260506164900 | 54 | 25 | 8.0 | 17.0 | 0.00 | 0.12 | 0.00 | 71 | 1012.0 |
| 20260506164400 | 54 | 36 | 9.0 | 20.0 | 0.00 | 0.12 | 0.00 | 71 | 1012.1 |
| 20260506163400 | 54 | 24 | 9.0 | 15.0 | 0.00 | 0.12 | 0.00 | 73 | 1011.9 |
| 20260506162900 | 54 | 14 | 10.0 | 17.0 | 0.00 | 0.12 | 0.00 | 71 | 1012.0 |
| 20260506162401 | 54 | 32 | 9.0 | 20.0 | 0.00 | 0.12 | 0.00 | 70 | 1012.2 |
| 20260506160900 | 54 | 13 | 10.0 | 18.0 | 0.00 | 0.12 | 0.00 | 72 | 1012.1 |
| 20260506160400 | 54 | 20 | 12.0 | 18.0 | 0.00 | 0.12 | 0.00 | 73 | 1012.0 |
| 20260506155900 | 54 | 11 | 9.0 | 15.0 | 0.00 | 0.12 | 0.00 | 71 | 1012.1 |
| 20260506155400 | 53 | 20 | 9.0 | 18.0 | 0.00 | 0.12 | 0.00 | 75 | 1012.3 |
| 20260506154901 | 54 | 18 | 12.0 | 18.0 | 0.00 | 0.12 | 0.00 | 76 | 1012.2 |
| 20260506154400 | 54 | 19 | 9.0 | 17.0 | 0.00 | 0.12 | 0.00 | 78 | 1012.3 |
| 20260506153900 | 53 | 15 | 12.0 | 17.0 | 0.00 | 0.12 | 0.00 | 79 | 1012.3 |
| 20260506153401 | 53 | 35 | 12.0 | 18.0 | 0.00 | 0.12 | 0.00 | 80 | 1012.4 |
| 20260506152401 | 53 | 23 | 13.0 | 21.0 | 0.00 | 0.12 | 0.00 | 81 | 1012.5 |
| 20260506151900 | 53 | 18 | 9.0 | 16.0 | 0.00 | 0.12 | 0.00 | 81 | 1012.5 |
| 20260506151400 | 53 | 14 | 14.0 | 18.0 | 0.00 | 0.12 | 0.00 | 80 | 1012.7 |
| 20260506145901 | 53 | 22 | 17.0 | 22.0 | 0.00 | 0.12 | 0.00 | 78 | 1012.8 |
| 20260506144901 | 53 | 24 | 13.0 | 24.0 | 0.00 | 0.12 | 0.00 | 77 | 1012.9 |
| 20260506144401 | 55 | 19 | 18.0 | 24.0 | 0.00 | 0.12 | 0.00 | 74 | 1012.6 |
| 20260506143900 | 56 | 26 | 12.0 | 18.0 | 0.00 | 0.12 | 0.00 | 71 | 1012.5 |
| 20260506143401 | 56 | 19 | 16.0 | 21.0 | 0.00 | 0.12 | 0.00 | 69 | 1012.5 |
| 20260506142900 | 58 | 17 | 13.0 | 21.0 | 0.00 | 0.12 | 0.00 | 65 | 1012.3 |
| 20260506142401 | 57 | 14 | 7.0 | 14.0 | 0.00 | 0.12 | 0.00 | 66 | 1012.4 |
| 20260506141901 | 55 | 334 | 6.0 | 12.0 | 0.00 | 0.12 | 0.00 | 68 | 1012.6 |
| 20260506141401 | 55 | 336 | 6.0 | 14.0 | 0.00 | 0.12 | 0.00 | 69 | 1012.7 |
| 20260506140900 | 55 | 340 | 7.0 | 14.0 | 0.00 | 0.12 | 0.00 | 67 | 1012.6 |
| 20260506140400 | 56 | 322 | 8.0 | 14.0 | 0.00 | 0.12 | 0.00 | 68 | 1012.6 |
| 20260506135900 | 55 | 7 | 7.0 | 13.0 | 0.00 | 0.12 | 0.00 | 67 | 1012.9 |
| 20260506135401 | 55 | 0 | 6.0 | 14.0 | 0.00 | 0.12 | 0.00 | 68 | 1012.9 |
| 20260506134900 | 55 | 5 | 7.0 | 14.0 | 0.00 | 0.12 | 0.00 | 68 | 1013.1 |
| 20260506134400 | 55 | 350 | 7.0 | 13.0 | 0.00 | 0.12 | 0.00 | 69 | 1012.9 |
| 20260506133900 | 55 | 4 | 9.0 | 15.0 | 0.00 | 0.12 | 0.00 | 68 | 1013.1 |
| 20260506133401 | 55 | 355 | 6.0 | 14.0 | 0.00 | 0.12 | 0.00 | 68 | 1013.0 |
| 20260506132901 | 55 | 7 | 6.0 | 14.0 | 0.00 | 0.12 | 0.00 | 68 | 1013.0 |
| 20260506132400 | 57 | 355 | 6.0 | 12.0 | 0.00 | 0.12 | 0.00 | 57 | 1012.6 |
| 20260506131401 | 58 | 54 | 9.0 | 15.0 | 0.00 | 0.13 | 0.00 | 55 | 1012.6 |
| 20260506130901 | 58 | 28 | 5.0 | 9.0 | 0.00 | 0.13 | 0.00 | 55 | 1012.7 |
| 20260506130401 | 57 | 67 | 4.0 | 7.0 | 0.00 | 0.13 | 0.00 | 58 | 1012.9 |
| 20260506125901 | 56 | 339 | 2.0 | 6.0 | 0.00 | 0.13 | 0.00 | 56 | 1012.9 |
| 20260506125406 | 57 | 90 | 2.0 | 5.0 | 0.00 | 0.13 | 0.00 | 57 | 1013.0 |
| 20260506124900 | 57 | 30 | 2.0 | 5.0 | 0.00 | 0.15 | 0.00 | 53 | 1013.0 |
| 20260506124400 | 56 | 95 | 3.0 | 7.0 | 0.00 | 0.19 | 0.00 | 56 | 1013.1 |
| 20260506123401 | 55 | 40 | 5.0 | 8.0 | 0.00 | 0.20 | 0.00 | 55 | 1013.3 |
| 20260506122901 | 58 | 33 | 7.0 | 9.0 | 0.00 | 0.24 | 0.00 | 55 | 1013.1 |
| 20260506121901 | 56 | 82 | 5.0 | 10.0 | 0.00 | 0.26 | 0.00 | 59 | 1013.4 |
| 20260506120400 | 58 | 104 | 5.0 | 9.0 | 0.00 | 0.26 | 0.00 | 55 | 1013.3 |
| 20260506115900 | 58 | 100 | 5.0 | 9.0 | 0.00 | 0.26 | 0.00 | 58 | 1013.3 |
| 20260506115401 | 59 | 84 | 5.0 | 10.0 | 0.00 | 0.26 | 0.00 | 56 | 1013.3 |
| 20260506114901 | 58 | 86 | 3.0 | 8.0 | 0.00 | 0.26 | 0.00 | 56 | 1013.4 |
| 20260506113901 | 56 | 73 | 3.0 | 5.0 | 0.00 | 0.26 | 0.00 | 62 | 1013.9 |
| 20260506113401 | 54 | 76 | 2.0 | 5.0 | 0.00 | 0.26 | 0.00 | 64 | 1014.2 |
| 20260506112901 | 53 | 57 | 3.0 | 5.0 | 0.00 | 0.26 | 0.00 | 67 | 1014.3 |
| 20260506111900 | 52 | 345 | 2.0 | 5.0 | 0.00 | 0.26 | 0.00 | 69 | 1014.5 |
| 20260506111400 | 53 | 272 | 2.0 | 3.0 | 0.00 | 0.26 | 0.00 | 69 | 1014.4 |
| 20260506110900 | 53 | 90 | 1.0 | 5.0 | 0.00 | 0.26 | 0.00 | 68 | 1014.4 |
| 20260506110401 | 54 | 238 | 1.0 | 8.0 | 0.00 | 0.26 | 0.00 | 67 | 1014.3 |
| 20260506105901 | 54 | 34 | 5.0 | 8.0 | 0.00 | 0.26 | 0.00 | 64 | 1014.5 |
| 20260506105401 | 55 | 29 | 7.0 | 10.0 | 0.00 | 0.26 | 0.00 | 63 | 1014.2 |
| 20260506104901 | 57 | 33 | 5.0 | 8.0 | 0.00 | 0.26 | 0.00 | 60 | 1014.0 |
| 20260506104401 | 56 | 88 | 5.0 | 10.0 | 0.00 | 0.26 | 0.00 | 63 | 1014.1 |
| 20260506103401 | 54 | 66 | 4.0 | 6.0 | 0.00 | 0.26 | 0.00 | 65 | 1014.5 |
| 20260506102901 | 53 | 75 | 5.0 | 8.0 | 0.00 | 0.26 | 0.00 | 67 | 1014.7 |
| 20260506102401 | 53 | 59 | 4.0 | 7.0 | 0.00 | 0.26 | 0.00 | 67 | 1014.6 |
| 20260506101401 | 55 | 92 | 3.0 | 8.0 | 0.00 | 0.26 | 0.00 | 69 | 1014.5 |
| 20260506100901 | 55 | 81 | 5.0 | 7.0 | 0.00 | 0.26 | 0.00 | 67 | 1014.3 |
| 20260506100401 | 54 | 101 | 4.0 | 6.0 | 0.00 | 0.26 | 0.00 | 70 | 1014.4 |
| 20260506095900 | 52 | 69 | 4.0 | 8.0 | 0.00 | 0.26 | 0.00 | 75 | 1014.8 |
| 20260506095401 | 50 | 87 | 3.0 | 6.0 | 0.00 | 0.26 | 0.00 | 79 | 1014.9 |
| 20260506094901 | 51 | 60 | 2.0 | 5.0 | 0.00 | 0.26 | 0.00 | 81 | 1015.0 |
| 20260506094401 | 49 | 66 | 2.0 | 5.0 | 0.00 | 0.26 | 0.00 | 79 | 1015.1 |
| 20260506093900 | 51 | 53 | 2.0 | 3.0 | 0.00 | 0.26 | 0.00 | 78 | 1015.0 |
| 20260506093401 | 53 | 51 | 3.0 | 5.0 | 0.00 | 0.26 | 0.00 | 76 | 1014.7 |
| 20260506092900 | 52 | 76 | 3.0 | 6.0 | 0.00 | 0.26 | 0.00 | 77 | 1014.8 |
| 20260506092401 | 53 | 83 | 3.0 | 9.0 | 0.00 | 0.26 | 0.00 | 79 | 1014.7 |
| 20260506091901 | 53 | 112 | 5.0 | 9.0 | 0.00 | 0.26 | 0.00 | 79 | 1014.7 |
| 20260506091400 | 53 | 112 | 5.0 | 9.0 | 0.00 | 0.26 | 0.00 | 78 | 1014.8 |
| 20260506090900 | 51 | 95 | 3.0 | 7.0 | 0.00 | 0.26 | 0.00 | 79 | 1014.7 |
| 20260506090401 | 52 | 78 | 5.0 | 7.0 | 0.00 | 0.26 | 0.00 | 77 | 1014.9 |
| 20260506085900 | 52 | 90 | 3.0 | 6.0 | 0.00 | 0.26 | 0.00 | 81 | 1014.7 |
| 20260506085401 | 50 | 88 | 3.0 | 6.0 | 0.00 | 0.26 | 0.00 | 84 | 1014.9 |
| 20260506084401 | 49 | 88 | 3.0 | 9.0 | 0.00 | 0.26 | 0.00 | 90 | 1015.2 |
| 20260506083401 | 50 | 80 | 3.0 | 7.0 | 0.00 | 0.26 | 0.00 | 83 | 1015.0 |
| 20260506082900 | 51 | 66 | 3.0 | 7.0 | 0.00 | 0.26 | 0.00 | 85 | 1014.8 |
| 20260506081901 | 51 | 85 | 3.0 | 6.0 | 0.00 | 0.26 | 0.00 | 86 | 1015.1 |
| 20260506081401 | 51 | 68 | 5.0 | 8.0 | 0.00 | 0.26 | 0.00 | 87 | 1015.0 |
| 20260506080901 | 50 | 93 | 4.0 | 8.0 | 0.00 | 0.26 | 0.00 | 91 | 1014.9 |
| 20260506080401 | 49 | 77 | 4.0 | 10.0 | 0.00 | 0.26 | 0.00 | 91 | 1015.4 |
| 20260506073401 | 48 | 54 | 5.0 | 9.0 | 0.00 | 0.26 | 0.00 | 93 | 1015.4 |
| 20260506072901 | 48 | 80 | 5.0 | 9.0 | 0.00 | 0.26 | 0.00 | 94 | 1015.4 |
| 20260506072401 | 47 | 91 | 5.0 | 8.0 | 0.00 | 0.26 | 0.00 | 93 | 1015.3 |
| 20260506071901 | 47 | 69 | 6.0 | 10.0 | 0.00 | 0.26 | 0.00 | 94 | 1015.3 |
| 20260506070901 | 48 | 84 | 6.0 | 8.0 | 0.00 | 0.26 | 0.00 | 94 | 1015.1 |
| 20260506062401 | 44 | 92 | 5.0 | 8.0 | 0.00 | 0.26 | 0.00 | 99 | 1015.4 |
| 20260506061901 | 44 | 99 | 5.0 | 7.0 | 0.00 | 0.26 | 0.00 | 99 | 1015.6 |
| 20260506061401 | 44 | 93 | 3.0 | 7.0 | 0.00 | 0.26 | 0.00 | 99 | 1015.6 |
| 20260506060901 | 44 | 93 | 4.0 | 7.0 | 0.00 | 0.26 | 0.00 | 99 | 1015.5 |
| 20260506060401 | 44 | 115 | 4.0 | 6.0 | 0.00 | 0.26 | 0.00 | 99 | 1015.6 |
| 20260506051401 | 44 | 59 | 2.0 | 6.0 | 0.00 | 0.26 | 0.00 | 99 | 1015.6 |
| 20260506050900 | 44 | 85 | 3.0 | 5.0 | 0.00 | 0.26 | 0.00 | 99 | 1015.5 |
| 20260506050401 | 44 | 60 | 2.0 | 5.0 | 0.00 | 0.26 | 0.00 | 99 | 1015.4 |
| 20260506044901 | 44 | 37 | 3.0 | 6.0 | 0.00 | 0.26 | 0.00 | 99 | 1015.3 |
| 20260506044401 | 44 | 56 | 3.0 | 6.0 | 0.00 | 0.26 | 0.00 | 99 | 1015.3 |
| 20260506043401 | 44 | 89 | 3.0 | 6.0 | 0.00 | 0.26 | 0.00 | 99 | 1015.5 |
| 20260506042901 | 44 | 89 | 3.0 | 7.0 | 0.00 | 0.26 | 0.00 | 99 | 1015.4 |
| 20260506041901 | 44 | 216 | 2.0 | 6.0 | 0.00 | 0.26 | 0.00 | 99 | 1015.4 |
| 20260506041401 | 44 | 31 | 2.0 | 6.0 | 0.00 | 0.26 | 0.00 | 99 | 1015.6 |
| 20260506040901 | 44 | 38 | 3.0 | 7.0 | 0.00 | 0.26 | 0.00 | 99 | 1015.5 |
| 20260506040401 | 44 | 54 | 3.0 | 6.0 | 0.00 | 0.26 | 0.00 | 99 | 1015.6 |
| 20260506035900 | 44 | 202 | 2.0 | 7.0 | 0.00 | 0.26 | 0.00 | 99 | 1015.7 |
| 20260506035401 | 44 | 64 | 2.0 | 7.0 | 0.00 | 0.26 | 0.00 | 99 | 1015.5 |
| 20260506034901 | 43 | 131 | 5.0 | 8.0 | 0.00 | 0.26 | 0.00 | 99 | 1015.6 |
| 20260506033901 | 44 | 128 | 6.0 | 8.0 | 0.00 | 0.26 | 0.00 | 99 | 1015.7 |
| 20260506033401 | 44 | 111 | 3.0 | 9.0 | 0.00 | 0.26 | 0.00 | 99 | 1015.7 |
| 20260506032901 | 44 | 111 | 6.0 | 9.0 | 0.00 | 0.26 | 0.00 | 99 | 1015.7 |
| 20260506032401 | 45 | 106 | 4.0 | 8.0 | 0.00 | 0.26 | 0.00 | 99 | 1015.4 |
| 20260506031901 | 44 | 93 | 3.0 | 9.0 | 0.00 | 0.26 | 0.00 | 99 | 1015.5 |
| 20260506031401 | 44 | 104 | 3.0 | 8.0 | 0.00 | 0.26 | 0.00 | 99 | 1015.7 |
| 20260506030901 | 44 | 72 | 5.0 | 10.0 | 0.00 | 0.26 | 0.00 | 99 | 1015.6 |
| 20260506025901 | 44 | 40 | 3.0 | 7.0 | 0.00 | 0.26 | 0.00 | 99 | 1015.7 |
| 20260506024901 | 44 | 19 | 2.0 | 7.0 | 0.00 | 0.26 | 0.00 | 99 | 1015.7 |
| 20260506024402 | 45 | 340 | 2.0 | 6.0 | 0.00 | 0.26 | 0.00 | 99 | 1015.6 |
| 20260506023401 | 44 | 1 | 2.0 | 8.0 | 0.00 | 0.26 | 0.00 | 99 | 1015.5 |
| 20260506022401 | 44 | 21 | 3.0 | 7.0 | 0.00 | 0.26 | 0.00 | 99 | 1015.7 |
| 20260506021902 | 44 | 55 | 4.0 | 6.0 | 0.00 | 0.26 | 0.00 | 99 | 1015.8 |
| 20260506021401 | 44 | 355 | 2.0 | 7.0 | 0.00 | 0.26 | 0.00 | 99 | 1015.6 |
| 20260506020902 | 44 | 76 | 3.0 | 7.0 | 0.00 | 0.26 | 0.00 | 99 | 1015.7 |
| 20260506020401 | 44 | 124 | 2.0 | 7.0 | 0.00 | 0.26 | 0.00 | 99 | 1015.8 |
| 20260506014401 | 45 | 43 | 3.0 | 7.0 | 0.00 | 0.26 | 0.00 | 99 | 1016.1 |
| 20260506013902 | 44 | 109 | 3.0 | 6.0 | 0.00 | 0.26 | 0.00 | 99 | 1016.1 |
| 20260506013401 | 44 | 74 | 3.0 | 6.0 | 0.00 | 0.26 | 0.00 | 99 | 1016.1 |
| 20260506012901 | 44 | 92 | 2.0 | 3.0 | 0.00 | 0.26 | 0.00 | 99 | 1016.2 |
| 20260506012401 | 44 | 73 | 3.0 | 3.0 | 0.00 | 0.26 | 0.00 | 99 | 1016.1 |
| 20260506011901 | 45 | 63 | 2.0 | 3.0 | 0.00 | 0.26 | 0.00 | 99 | 1016.1 |
| 20260506011402 | 44 | 74 | 2.0 | 3.0 | 0.00 | 0.26 | 0.00 | 99 | 1016.1 |
| 20260506010901 | 44 | 51 | 3.0 | 5.0 | 0.00 | 0.26 | 0.00 | 99 | 1016.1 |
| 20260506010401 | 45 | 58 | 2.0 | 3.0 | 0.00 | 0.26 | 0.00 | 99 | 1016.3 |
| 20260506005901 | 45 | 51 | 2.0 | 3.0 | 0.00 | 0.26 | 0.00 | 99 | 1016.3 |
| 20260506005401 | 45 | 59 | 2.0 | 3.0 | 0.00 | 0.26 | 0.00 | 99 | 1016.3 |
| 20260506004902 | 45 | 53 | 2.0 | 2.0 | 0.00 | 0.26 | 0.00 | 99 | 1016.3 |
| 20260506003901 | 45 | 70 | 2.0 | 5.0 | 0.00 | 0.26 | 0.00 | 99 | 1016.3 |
| 20260506003401 | 45 | 57 | 2.0 | 5.0 | 0.00 | 0.26 | 0.00 | 99 | 1016.4 |
| 20260506002401 | 46 | 56 | 3.0 | 5.0 | 0.00 | 0.26 | 0.00 | 99 | 1016.5 |
| 20260506001901 | 46 | 62 | 3.0 | 5.0 | 0.00 | 0.26 | 0.00 | 99 | 1016.4 |
| 20260506001401 | 46 | 59 | 3.0 | 5.0 | 0.00 | 0.26 | 0.00 | 99 | 1016.5 |
| 20260506000901 | 46 | 46 | 3.0 | 5.0 | 0.00 | 0.26 | 0.00 | 99 | 1016.4 |
| 20260505235901 | 45 | 350 | 1.0 | 3.0 | 0.00 | 0.26 | 0.00 | 99 | 1016.6 |